20000101,46
20000102,48
20000103,72
20000104,184
20000105,109
20000106,85
20000107,75
20000108,68
20000109,66
20000110,66
20000111,64
20000112,58
20000113,58
20000114,55
20000115,57
20000116,57
20000117,55
20000118,56
20000119,55
20000213,88
20000214,236
20000215,164
20000216,136
20000217,119
20000218,282
20000219,465
20000220,272
20000221,185
20000222,163
20000223,150
20000224,141
20000225,136
20000226,123
20000227,174
20000228,181
20000229,143
20000301,126
20000302,109
20000303,101
20000304,94
20000305,88
20000306,82
20000307,78
20000308,76
20000309,74
20000310,71
20000311,72
20000312,77
20000313,76
20000314,81
20000315,86
20000316,87
20000317,89
20000318,81
20000319,101
20000320,300
20000321,391
20000322,257
20000323,186
20000324,156
20000325,139
20000326,119
20000327,122
20000328,112
20000329,98
20000330,88
20000331,83
20000401,80
20000402,81
20000403,84
20000404,83
20000405,80
20000406,76
20000407,369
20000408,2020
20000409,767
20000410,461
20000411,361
20000412,292
20000413,240
20000414,211
20000415,187
20000416,167
20000417,193
20000418,176
20000419,156
20000420,183
20000421,316
20000422,295
20000423,235
20000424,194
20000425,166
20000426,145
20000427,135
20000428,127
20000429,118
20000430,110
20000501,111
20000502,181
20000503,147
20000504,134
20000505,137
20000506,130
20000507,122
20000508,124
20000509,114
20000510,169
20000511,134
20000512,119
20000513,136
20000514,119
20000515,107
20000516,102
20000517,104
20000518,102
20000519,303
20000520,260
20000521,177
20000522,145
20000523,257
20000524,184
20000525,135
20000526,115
20000527,290
20000528,301
20000529,202
20000530,157
20000531,138
20000601,123
20000602,113
20000603,103
20000604,98
20000605,103
20000606,100
20000607,89
20000608,87
20000609,83
20000610,78
20000611,81
20000612,80
20000613,75
20000614,84
20000615,435
20000616,282
20000617,474
20000618,1440
20000619,703
20000620,416
20000621,408
20000622,352
20000623,253
20000624,201
20000625,262
20000626,200
20000627,166
20000628,142
20000629,134
20000630,121
20000701,112
20000702,105
20000703,118
20000704,304
20000705,196
20000706,210
20000707,269
20000708,166
20000709,135
20000710,121
20000711,133
20000712,125
20000713,106
20000714,97
20000715,91
20000716,85
20000717,81
20000718,79
20000719,101
20000720,90
20000721,76
20000722,69
20000723,66
20000724,64
20000725,63
20000726,60
20000727,59
20000728,61
20000729,66
20000730,155
20000731,103
20000801,81
20000802,71
20000803,72
20000804,67
20000805,63
20000806,65
20000807,160
20000808,120
20000809,91
20000810,82
20000811,69
20000812,63
20000813,59
20000814,57
20000815,55
20000816,53
20000817,53
20000818,75
20000819,58
20000820,52
20000821,49
20000822,49
20000823,50
20000824,57
20000825,50
20000826,47
20000827,57
20000828,50
20000829,47
20000830,45
20000831,43
20000901,42
20000902,42
20000903,40
20000904,64
20000905,52
20000906,45
20000907,43
20000908,42
20000909,43
20000910,166
20000911,172
20000912,111
20000913,89
20000914,74
20000915,71
20000916,65
20000917,62
20000918,60
20000919,57
20000920,58
20000921,82
20000922,64
20000923,64
20000924,68
20000925,70
20000926,83
20000927,74
20000928,68
20000929,63
20000930,61
20001001,59
20001002,58
20001003,57
20001004,57
20001005,529
20001006,485
20001007,275
20001008,181
20001009,139
20001010,114
20001011,99
20001012,89
20001013,83
20001014,80
20001015,77
20001016,76
20001017,89
20001018,79
20001019,73
20001020,71
20001021,68
20001022,66
20001023,65
20001024,67
20001025,67
20001026,66
20001027,66
20001028,64
20001029,63
20001030,62
20001031,62
20001101,61
20001102,61
20001103,61
20001104,60
20001105,59
20001106,62
20001107,77
20001108,68
20001109,114
20001110,335
20001111,243
20001112,164
20001113,157
20001114,174
20001115,141
20001116,122
20001117,108
20001118,97
20001119,92
20001120,89
20001121,82
20001122,83
20001123,78
20001124,76
20001125,85
20001126,100
20001127,102
20001128,96
20001129,89
20001130,86
20001201,82
20001202,81
20001203,77
20001204,76
20001205,77
20001206,72
20001207,74
20001208,73
20001209,69
20001210,69
20001211,110
20001212,391
20001213,236
20001214,179
20001215,134
20001216,408
20001217,803
20010113,74
20010114,76
20010115,195
20010116,217
20010117,151
20010118,129
20010119,133
20010120,118
20010123,93
20010124,91
20010125,87
20010126,84
20010127,86
20010130,459
20010131,527
20010201,330
20010202,251
20010203,187
20010204,161
20010205,144
20010206,133
20010207,122
20010208,119
20010209,231
20010210,830
20010211,432
20010212,301
20010213,236
20010214,258
20010215,478
20010216,345
20010217,261
20010218,200
20010219,178
20010220,167
20010221,153
20010222,144
20010223,138
20010224,128
20010225,250
20010226,259
20010227,199
20010228,173
20010301,159
20010302,151
20010303,141
20010304,131
20010305,124
20010306,118
20010307,115
20010308,111
20010309,109
20010310,106
20010311,104
20010312,102
20010313,114
20010314,108
20010315,102
20010316,126
20010317,163
20010318,152
20010319,136
20010320,129
20010321,124
20010322,115
20010323,111
20010324,107
20010325,101
20010326,98
20010327,97
20010328,95
20010329,99
20010330,97
20010331,93
20010401,100
20010402,93
20010403,90
20010404,86
20010405,84
20010406,89
20010407,96
20010408,89
20010409,87
20010410,120
20010411,755
20010412,532
20010413,327
20010414,230
20010415,196
20010416,171
20010417,149
20010418,136
20010419,127
20010420,130
20010421,122
20010422,113
20010423,108
20010424,109
20010425,98
20010426,96
20010427,94
20010428,89
20010429,85
20010430,84
20010501,84
20010502,82
20010503,79
20010504,76
20010505,74
20010506,72
20010507,77
20010508,85
20010509,75
20010510,71
20010511,68
20010512,70
20010513,65
20010514,64
20010515,66
20010516,77
20010517,129
20010518,375
20010519,765
20010520,380
20010521,261
20010522,188
20010523,149
20010524,323
20010525,384
20010526,496
20010527,740
20010528,429
20010529,304
20010530,228
20010531,189
20010601,178
20010602,165
20010603,149
20010604,148
20010605,160
20010606,309
20010607,400
20010608,264
20010609,195
20010610,161
20010611,144
20010612,133
20010613,690
20010614,341
20010615,320
20010616,529
20010617,308
20010618,221
20010619,228
20010620,510
20010621,324
20010622,387
20010623,279
20010624,214
20010625,177
20010626,156
20010627,142
20010628,132
20010629,123
20010630,118
20010701,139
20010702,153
20010703,138
20010704,308
20010705,453
20010706,261
20010707,254
20010708,330
20010709,740
20010710,371
20010711,246
20010712,183
20010713,152
20010714,132
20010715,119
20010716,108
20010717,103
20010718,1430
20010719,622
20010720,356
20010721,254
20010722,200
20010723,159
20010724,137
20010725,128
20010726,138
20010727,120
20010728,137
20010729,185
20010730,202
20010731,141
20010801,118
20010802,106
20010803,101
20010804,95
20010805,88
20010806,84
20010807,81
20010808,78
20010809,81
20010810,90
20010811,81
20010812,74
20010813,71
20010814,68
20010815,66
20010816,67
20010817,68
20010818,67
20010819,106
20010820,78
20010821,69
20010822,65
20010823,116
20010824,90
20010825,79
20010826,95
20010827,87
20010828,75
20010829,70
20010830,66
20010831,70
20010901,75
20010902,66
20010903,62
20010904,61
20010905,58
20010906,57
20010907,57
20010908,64
20010909,94
20010910,128
20010911,93
20010912,75
20010913,68
20010914,64
20010915,60
20010916,59
20010917,58
20010918,64
20010919,249
20010920,214
20010921,131
20010922,105
20010923,91
20010924,246
20010925,177
20010926,130
20010927,106
20010928,96
20010929,88
20010930,83
20011001,80
20011002,78
20011003,75
20011004,71
20011005,90
20011006,166
20011007,137
20011008,109
20011009,101
20011010,94
20011011,163
20011012,793
20011013,499
20011014,1280
20011015,977
20011016,732
20011017,699
20011018,467
20011019,374
20011020,313
20011021,264
20011022,230
20011023,294
20011024,910
20011025,1480
20011026,646
20011027,447
20011028,359
20011029,305
20011030,267
20011031,238
20011101,216
20011102,225
20011103,236
20011104,205
20011105,187
20011106,171
20011107,161
20011108,155
20011109,146
20011110,141
20011111,136
20011112,129
20011113,127
20011114,125
20011115,123
20011116,120
20011117,118
20011118,116
20011119,117
20011120,118
20011121,115
20011122,109
20011123,106
20011124,110
20011125,164
20011126,140
20011127,165
20011128,204
20011129,750
20011130,1170
20011201,659
20011202,454
20011203,367
20011204,314
20011205,271
20011206,246
20011207,227
20011208,202
20011209,181
20011210,166
20011211,156
20011212,155
20011213,244
20011214,467
20011215,596
20011216,415
20011217,1580
20011218,1790
20011219,773
20011220,531
20011221,424
20011222,371
20011223,354
20011224,313
20011225,271
20011226,244
20011227,225
20011228,211
20011229,190
20011230,169
20011231,161
20020101,153
20020102,146
20020103,145
20020104,141
20020105,138
20020106,141
20020107,137
20020108,131
20020109,132
20020110,135
20020111,132
20020112,128
20020113,126
20020114,123
20020115,122
20020116,117
20020117,116
20020118,113
20020119,112
20020120,110
20020121,109
20020122,108
20020123,110
20020124,130
20020125,129
20020126,120
20020127,115
20020128,113
20020129,114
20020130,140
20020131,297
20020201,1310
20020202,668
20020203,458
20020204,358
20020205,279
20020206,233
20020207,209
20020208,186
20020209,171
20020210,174
20020211,196
20020212,185
20020213,167
20020214,153
20020215,151
20020216,145
20020217,138
20020218,130
20020219,132
20020220,157
20020221,188
20020222,165
20020223,149
20020224,142
20020225,138
20020226,184
20020227,185
20020228,164
20020301,158
20020302,192
20020303,621
20020304,371
20020305,276
20020306,239
20020307,212
20020308,188
20020309,453
20020310,610
20020311,374
20020312,314
20020313,272
20020314,237
20020315,227
20020316,574
20020317,385
20020318,308
20020319,262
20020320,281
20020321,285
20020322,236
20020323,215
20020324,201
20020325,530
20020326,614
20020327,606
20020328,758
20020329,579
20020330,584
20020331,431
20020401,360
20020402,318
20020403,488
20020404,381
20020405,319
20020406,286
20020407,257
20020408,249
20020409,392
20020410,380
20020411,310
20020412,383
20020413,962
20020414,1100
20020415,958
20020416,574
20020417,449
20020418,384
20020419,349
20020420,314
20020421,432
20020422,476
20020423,368
20020424,331
20020425,456
20020426,359
20020427,382
20020428,1640
20020429,792
20020430,529
20020501,436
20020502,567
20020503,445
20020504,367
20020505,323
20020506,329
20020507,855
20020508,1110
20020509,856
20020510,550
20020511,435
20020512,595
20020513,3540
20020514,3060
20020515,1080
20020516,694
20020517,585
20020518,509
20020519,447
20020520,408
20020521,375
20020522,353
20020523,329
20020524,318
20020525,336
20020526,349
20020527,304
20020528,320
20020529,328
20020530,287
20020531,264
20020601,292
20020602,252
20020603,222
20020604,208
20020605,429
20020606,411
20020607,339
20020608,277
20020609,237
20020610,213
20020611,203
20020612,200
20020613,249
20020614,383
20020615,307
20020616,233
20020617,194
20020618,175
20020619,161
20020620,153
20020621,146
20020622,140
20020623,136
20020624,132
20020625,312
20020626,402
20020627,386
20020628,543
20020629,314
20020630,233
20020701,193
20020702,170
20020703,155
20020704,143
20020705,134
20020706,124
20020707,118
20020708,115
20020709,129
20020710,232
20020711,140
20020712,120
20020713,113
20020714,109
20020715,105
20020716,100
20020717,98
20020718,99
20020719,110
20020720,116
20020721,96
20020722,91
20020723,92
20020724,88
20020725,85
20020726,84
20020727,103
20020728,92
20020729,83
20020730,86
20020731,80
20020801,78
20020802,76
20020803,74
20020804,71
20020805,71
20020806,73
20020807,72
20020808,69
20020809,67
20020810,64
20020811,62
20020812,63
20020813,67
20020814,67
20020815,68
20020816,64
20020817,62
20020818,61
20020819,81
20020820,77
20020821,66
20020822,61
20020823,66
20020824,100
20020825,77
20020826,67
20020827,62
20020828,59
20020829,58
20020830,57
20020831,54
20020901,53
20020902,60
20020903,54
20020904,52
20020905,50
20020906,48
20020907,47
20020908,46
20020909,46
20020910,43
20020911,44
20020912,44
20020913,43
20020914,44
20020915,46
20020916,46
20020917,44
20020918,46
20020919,51
20020920,92
20020921,90
20020922,64
20020923,58
20020924,56
20020925,57
20020926,56
20020927,99
20020928,80
20020929,65
20020930,61
20021001,64
20021002,61
20021003,58
20021004,63
20021005,74
20021006,61
20021007,59
20021008,57
20021009,57
20021010,57
20021011,56
20021012,56
20021013,56
20021014,55
20021015,55
20021016,56
20021017,56
20021018,55
20021019,68
20021020,62
20021021,60
20021022,60
20021023,57
20021024,57
20021025,89
20021026,102
20021027,76
20021028,70
20021029,83
20021030,89
20021031,79
20021101,74
20021102,69
20021103,68
20021104,68
20021105,71
20021106,81
20021107,72
20021108,71
20021109,68
20021110,127
20021111,211
20021112,125
20021113,105
20021114,93
20021115,87
20021116,84
20021117,79
20021118,75
20021119,73
20021120,71
20021121,72
20021122,81
20021123,79
20021124,76
20021125,75
20021126,73
20021127,71
20021128,69
20021129,68
20021130,67
20021201,65
20021202,65
20021203,62
20021204,61
20021205,62
20021206,60
20021207,59
20021208,60
20021209,59
20021210,59
20021211,64
20021212,63
20021213,63
20021214,70
20021215,69
20021216,67
20021217,67
20021218,81
20021219,249
20021220,430
20021221,270
20021222,177
20021223,136
20021224,119
20021225,118
20021226,103
20021227,93
20021228,90
20021229,89
20021230,148
20021231,435
20030101,607
20030102,554
20030103,349
20030104,260
20030105,215
20030106,183
20030107,160
20030108,159
20030109,266
20030110,238
20030111,165
20030112,145
20030113,130
20030114,122
20030115,116
20030121,94
20030122,93
20030123,93
20030131,77
20030201,78
20030202,78
20030203,89
20030204,272
20030205,183
20030206,137
20030207,119
20030208,106
20030209,101
20030210,98
20030211,93
20030212,89
20030214,85
20030215,90
20030216,80
20030217,83
20030218,83
20030219,81
20030220,79
20030221,81
20030222,171
20030223,483
20030224,340
20030225,217
20030226,177
20030227,152
20030228,137
20030301,126
20030302,129
20030303,124
20030304,125
20030305,329
20030306,452
20030307,303
20030308,362
20030309,1050
20030310,568
20030311,404
20030312,392
20030313,786
20030314,820
20030315,563
20030316,485
20030317,416
20030318,351
20030319,320
20030320,320
20030321,468
20030322,429
20030323,322
20030324,267
20030325,244
20030326,324
20030327,267
20030328,233
20030329,506
20030330,406
20030331,309
20030401,260
20030402,222
20030403,197
20030404,185
20030405,344
20030406,263
20030407,248
20030408,257
20030409,219
20030410,201
20030411,183
20030412,166
20030413,151
20030414,144
20030415,141
20030416,136
20030417,137
20030418,130
20030419,122
20030420,121
20030421,125
20030422,118
20030423,111
20030424,108
20030425,117
20030426,122
20030427,107
20030428,104
20030429,108
20030430,103
20030501,102
20030502,134
20030503,114
20030504,105
20030505,404
20030506,352
20030507,456
20030508,336
20030509,285
20030510,769
20030511,2060
20030512,1100
20030513,564
20030514,392
20030515,443
20030516,349
20030517,291
20030518,251
20030519,221
20030520,201
20030521,181
20030522,166
20030523,156
20030524,148
20030525,141
20030526,134
20030527,127
20030528,126
20030529,137
20030530,122
20030531,136
20030601,120
20030602,111
20030603,125
20030604,124
20030605,113
20030606,105
20030607,105
20030608,103
20030609,101
20030610,96
20030611,102
20030612,122
20030613,191
20030614,571
20030615,374
20030616,247
20030617,183
20030618,155
20030619,140
20030620,126
20030621,115
20030622,108
20030623,104
20030624,98
20030625,95
20030626,92
20030627,91
20030628,86
20030629,84
20030630,81
20030701,78
20030702,78
20030703,75
20030704,72
20030705,1580
20030706,1040
20030707,845
20030708,594
20030709,1660
20030710,2100
20030711,859
20030712,594
20030713,450
20030714,369
20030715,336
20030716,317
20030717,263
20030718,247
20030719,221
20030720,198
20030721,306
20030722,378
20030723,310
20030724,216
20030725,172
20030726,156
20030727,149
20030728,154
20030729,141
20030730,126
20030731,116
20030801,114
20030802,128
20030803,128
20030804,117
20030805,109
20030806,100
20030807,94
20030808,90
20030809,101
20030810,169
20030811,139
20030812,145
20030813,142
20030814,109
20030815,99
20030816,92
20030817,94
20030818,87
20030819,83
20030820,79
20030821,76
20030822,74
20030823,72
20030824,68
20030825,67
20030826,66
20030827,81
20030828,75
20030829,75
20030830,165
20030831,124
20030901,1550
20030902,3870
20030903,1740
20030904,672
20030905,475
20030906,388
20030907,332
20030908,285
20030909,245
20030910,208
20030911,177
20030912,153
20030913,139
20030914,131
20030915,133
20030916,122
20030917,112
20030918,107
20030919,105
20030920,101
20030921,97
20030922,188
20030923,203
20030924,147
20030925,129
20030926,120
20030927,571
20030928,426
20030929,300
20030930,225
20031001,181
20031002,154
20031003,142
20031004,146
20031005,133
20031006,122
20031007,116
20031008,112
20031009,109
20031010,108
20031011,106
20031012,103
20031013,101
20031014,590
20031015,821
20031016,469
20031017,358
20031018,289
20031019,238
20031020,197
20031021,179
20031022,165
20031023,155
20031024,143
20031025,139
20031026,208
20031027,233
20031028,200
20031029,194
20031030,175
20031031,158
20031101,167
20031102,179
20031103,165
20031104,154
20031105,144
20031106,137
20031107,130
20031108,122
20031109,117
20031110,116
20031111,121
20031112,179
20031113,166
20031114,140
20031115,133
20031116,129
20031117,122
20031118,179
20031119,618
20031120,469
20031121,335
20031122,265
20031123,222
20031124,474
20031125,437
20031126,325
20031127,804
20031128,1040
20031129,693
20031130,480
20031201,395
20031202,337
20031203,294
20031204,266
20031205,306
20031206,388
20031207,324
20031208,288
20031209,263
20031210,322
20031211,428
20031212,335
20031213,275
20031214,255
20031215,228
20031216,271
20031217,359
20031218,289
20031219,245
20031220,213
20031221,195
20031222,192
20031223,564
20031224,683
20031225,433
20031226,342
20031227,297
20031228,272
20031229,292
20031230,584
20031231,407
